This is the latest recevied weather packets stored in our database for station/object OK1KZE-6. If no packets are shown the sender has not sent any weather packets the latest 10 day(s).
| Time | Temp. | Humidity | Pressure | Rain* | Wind** | Luminosity | Snow |
|---|---|---|---|---|---|---|---|
| 1777449609 | 9.44° C | 36% | 1026.9 hPa | - | - | - | - |
| 1777449308 | 8.89° C | 37% | 1026.9 hPa | - | - | - | - |
| 1777449008 | 8.33° C | 37% | 1026.7 hPa | - | - | - | - |
| 1777448709 | 8.89° C | 39% | 1026.7 hPa | - | - | - | - |
| 1777448408 | 8.33° C | 39% | 1026.7 hPa | - | - | - | - |
| 1777448107 | 8.89° C | 39% | 1026.8 hPa | - | - | - | - |
| 1777447808 | 8.33° C | 41% | 1026.7 hPa | - | - | - | - |
| 1777447507 | 7.78° C | 40% | 1026.7 hPa | - | - | - | - |
| 1777447207 | 8.33° C | 41% | 1026.6 hPa | - | - | - | - |
| 1777446908 | 7.78° C | 43% | 1026.6 hPa | - | - | - | - |
| 1777446608 | 7.22° C | 41% | 1026.6 hPa | - | - | - | - |
| 1777446308 | 7.78° C | 42% | 1026.5 hPa | - | - | - | - |
| 1777446008 | 7.22° C | 43% | 1026.5 hPa | - | - | - | - |
| 1777445707 | 7.22° C | 43% | 1026.7 hPa | - | - | - | - |
| 1777445408 | 7.22° C | 44% | 1026.5 hPa | - | - | - | - |
| 1777445108 | 7.22° C | 43% | 1026.5 hPa | - | - | - | - |
| 1777444809 | 6.67° C | 44% | 1026.5 hPa | - | - | - | - |
| 1777444508 | 6.67° C | 44% | 1026.5 hPa | - | - | - | - |
| 1777444209 | 6.11° C | 44% | 1026.2 hPa | - | - | - | - |
| 1777443908 | 6.11° C | 43% | 1026.4 hPa | - | - | - | - |
| 1777443607 | 6.11° C | 44% | 1026.4 hPa | - | - | - | - |
| 1777443307 | 6.11° C | 44% | 1026.3 hPa | - | - | - | - |
| 1777443008 | 5.56° C | 46% | 1026.3 hPa | - | - | - | - |
| 1777442708 | 6.11° C | 45% | 1026.4 hPa | - | - | - | - |
| 1777442408 | 5.56° C | 47% | 1026.6 hPa | - | - | - | - |
* Rain since midnight (hover to see other rain measurements)
** Current wind speed in m/s (hover to see current wind gust speed)